Probability
0 0 0 0 0 0 0 0 0 0 0 0 0 0 0 0 0 0 0 0 0 0 0 0 0 0 0 0 0 0 0 0 0 0 0 0 0 0 0 0 0 0 0 0
0 0 0 0 0 0 0 0 0 0 0 0 0 0 0 0 0 0 0 0 0 0 0 0 0 0 0 0 0 0 0 0 0 0 0 0 0 0 0 0 0 0 0 0
0 0 0 0 0 0 0 0 0 0 0 0 0 0 0 0 0 0 0 0 0 0 0 0 0 0 0 0 0 0 0 0 0 0 0 0 0 0 0 0 0 0 0 0
0 0 0 0 0 0 0 0 0 0 0 0 0 0 0 0 0 0 0 0 0 0 0 0 0 0 1 0 0 0 0 0 0 0 0 0 0 0 0 0 0 0 0 0
0 0 0 0 0 0 0 0 0 0 0 0 0 0 0 0 0 0 0 0 0 0 0 0 0 0 1 1 0 0 0 0 0 0 0 0 0 0 0 0 0 0 0 0
0 0 0 0 0 0 0 0 0 0 0 0 0 0 0 0 0 0 0 0 0 0 0 0 0 0 0 1 0 0 0 0 0 0 0 0 0 0 0 0 0 0 0 0
0 0 0 0 0 0 0 0 0 0 0 0 0 0 0 0 0 0 0 0 0 0 0 0 0 0 1 1 0 0 0 0 0 0 0 0 0 0 0 0 0 0 0 0
0 0 0 0 0 0 0 0 0 0 0 0 0 0 0 0 0 0 0 0 0 0 0 0 0 1 1 1 1 0 0 0 0 0 0 0 0 0 0 0 0 0 0 0
0 0 0 0 0 0 0 0 0 0 0 0 0 0 0 0 0 0 0 0 0 0 0 0 0 1 2 3 2 1 0 0 0 0 0 0 0 0 0 0 0 0 0 0
0 0 0 0 0 0 0 0 0 0 0 0 0 0 0 0 0 0 0 0 0 0 0 0 1 1 3 3 3 1 1 1 0 0 0 0 0 0 0 0 0 0 0 0
0 0 0 0 0 0 0 0 0 0 0 0 0 0 0 0 0 0 0 0 0 0 0 0 1 3 4 4 3 3 2 2 1 0 0 0 0 0 0 0 0 0 0 0
0 0 0 0 0 0 0 0 0 0 0 0 0 0 0 0 0 0 0 0 0 0 0 0 1 3 4 5 4 4 4 3 1 0 0 0 0 0 0 0 0 0 0 0
0 0 0 0 0 0 0 0 0 0 0 0 0 0 0 1 1 1 0 0 0 0 0 0 1 3 4 4 4 5 5 3 1 1 0 0 0 0 0 0 0 0 0 0
0 0 0 0 0 0 0 0 0 0 0 0 0 0 0 1 2 1 1 1 0 0 0 0 1 2 3 3 3 3 4 4 2 1 0 0 0 0 0 0 0 0 0 0
0 0 0 0 0 0 0 0 0 0 0 0 0 0 0 1 1 1 2 2 1 0 0 0 1 3 4 3 3 2 3 3 2 1 0 0 0 0 0 0 0 0 0 0
0 0 0 0 0 0 0 0 0 0 0 0 0 0 0 0 0 0 1 2 1 1 1 1 1 2 4 4 3 3 2 1 1 0 0 0 0 0 0 0 0 0 0 0
0 0 0 0 0 0 0 0 0 0 0 0 0 0 0 0 0 0 0 1 1 1 1 1 1 1 2 3 2 2 1 0 0 0 0 0 0 0 0 0 0 0 0 0
0 0 0 0 0 0 0 0 0 0 0 0 0 0 0 0 0 0 0 0 0 0 1 1 0 0 1 1 1 1 0 0 0 0 0 0 1 1 1 1 1 0 0 0
0 0 0 0 0 0 0 0 0 0 0 0 0 0 0 0 0 0 0 0 0 0 0 0 0 0 0 0 0 0 0 0 0 0 0 0 1 2 2 2 2 1 1 1
0 0 0 0 0 0 0 0 0 0 0 0 0 0 0 0 0 0 0 0 0 0 0 0 0 0 0 0 0 0 0 0 0 0 0 0 1 3 3 3 3 3 2 2
0 0 0 0 0 0 0 0 0 0 0 0 0 0 0 0 0 0 0 0 0 0 0 0 0 0 0 0 0 0 0 0 0 0 0 0 1 2 3 3 3 3 3 3
0 0 0 0 0 0 0 0 0 0 0 0 0 0 0 0 0 0 0 0 0 0 0 0 0 0 0 0 0 0 0 0 0 0 0 0 1 2 3 3 3 3 3 3
0 0 0 0 0 0 0 0 0 0 0 0 0 0 0 0 0 0 0 0 0 0 0 0 0 0 0 0 0 0 0 0 0 0 0 0 1 2 3 3 3 3 3 3
0 0 0 0 0 0 0 0 0 0 0 0 0 0 0 0 0 0 0 0 0 0 0 0 0 0 0 0 0 0 0 0 0 0 0 0 1 2 2 2 2 2 3 3
0 0 0 0 0 0 0 0 0 0 0 0 0 0 0 0 0 0 0 0 0 0 0 0 0 0 0 0 0 0 0 0 0 0 0 0 0 1 1 1 1 1 1 2
0 0 0 0 0 0 0 0 0 0 0 0 0 0 0 0 0 0 0 0 0 1 1 1 1 1 1 0 0 0 0 0 0 0 0 0 0 0 0 0 0 0 0 1
Wind_Speed
5 5 5 5 5 3 3 4 4 3 3 5 6 6 6 7 7 8 8 9 9 9 8 7 7 7 7 6 6 7 6 6 4 3 3 2 2 2 2 2 3 2 2 2
6 5 3 3 5 5 5 5 4 3 3 4 5 6 6 7 9 8 9 9 10 10 9 8 8 8 8 8 7 7 7 6 5 3 3 2 2 2 2 2 2 2 2 2
5 2 4 6 6 6 6 6 5 3 3 5 5 7 8 8 8 8 8 8 9 10 10 10 9 9 9 8 8 6 7 7 6 6 4 4 3 3 3 3 2 2 2 2
4 3 5 6 6 6 5 4 4 5 5 4 5 5 5 7 8 9 9 9 10 10 9 9 9 9 9 8 8 8 8 7 7 7 6 6 4 3 3 2 3 3 3 2
4 5 6 6 4 5 3 3 4 5 5 5 6 7 3 6 7 9 9 9 9 9 10 10 10 9 8 8 7 7 8 7 7 6 6 6 4 3 3 3 4 3 3 3
4 4 4 4 3 4 5 5 4 5 6 6 5 6 3 4 6 7 9 10 9 9 10 10 9 9 8 7 7 7 8 7 7 6 7 6 6 5 5 4 4 3 3 2
6 6 5 5 6 7 8 6 4 5 5 3 2 6 3 0 2 5 7 9 9 9 10 10 10 9 8 9 8 8 9 8 8 7 7 6 6 6 5 4 4 3 3 2
7 6 7 6 7 6 8 8 4 3 3 2 4 6 1 0 1 3 5 7 9 9 10 10 10 9 9 9 9 9 9 9 8 8 7 6 6 4 3 4 3 3 2 2
5 4 5 5 4 6 8 7 5 6 4 5 4 3 3 2 3 4 5 7 8 9 10 10 9 10 9 10 10 10 10 9 9 8 7 6 6 5 5 4 4 3 3 2
3 4 4 5 6 4 5 5 5 6 4 5 4 4 2 3 5 5 6 7 8 8 9 10 9 9 9 9 9 9 10 10 9 8 7 5 5 5 4 4 5 4 4 3
5 5 5 7 8 7 8 8 7 6 6 5 3 1 2 1 3 5 6 6 7 8 9 9 9 9 9 9 9 9 9 9 9 9 8 7 6 6 5 4 4 4 4 4
5 5 5 6 4 4 8 8 9 7 6 6 5 0 4 1 2 3 5 5 6 7 8 9 9 9 9 9 9 9 10 9 9 8 8 8 7 6 6 5 5 5 5 4
5 6 5 5 7 8 8 8 10 9 7 6 7 2 4 0 2 3 4 5 6 7 8 8 9 9 9 9 9 9 9 9 8 8 8 8 8 7 6 5 5 5 5 5
5 7 7 6 3 5 8 9 10 11 8 8 8 6 2 2 3 3 5 6 6 7 7 8 8 8 8 9 9 9 9 9 9 9 8 8 8 7 6 5 5 5 5 5
6 7 7 7 5 6 8 9 11 13 11 10 7 7 5 3 3 3 4 5 6 6 7 8 8 8 9 9 9 9 9 9 9 9 9 8 7 7 6 6 5 5 5 5
5 7 7 8 7 8 10 11 11 12 12 11 10 9 4 3 3 3 4 5 6 6 7 7 8 8 9 9 9 9 9 9 9 9 9 7 7 7 6 6 6 6 5 5
5 7 7 8 7 8 11 11 12 12 11 11 11 7 4 4 4 4 5 6 6 6 6 7 7 7 8 8 9 10 10 9 9 9 9 8 8 8 7 7 6 6 6 5
8 8 6 6 6 10 4 3 7 10 10 10 9 6 6 5 4 4 4 5 5 6 6 6 6 6 6 7 8 9 9 9 9 9 9 8 8 8 7 7 7 6 6 5
9 8 6 6 7 8 5 6 7 8 8 8 9 7 5 4 5 5 4 4 4 5 5 6 6 6 6 7 8 9 9 9 9 9 8 9 8 8 8 8 7 6 6 5
8 8 7 7 8 7 3 4 5 7 8 7 8 7 6 6 6 4 4 4 4 3 4 4 5 5 6 7 9 10 9 9 9 8 8 8 8 8 8 8 7 6 6 5
9 8 10 9 8 7 2 3 7 8 3 5 8 8 8 7 3 3 5 5 4 4 4 5 5 5 5 7 9 9 9 9 8 7 7 7 7 7 7 7 6 6 6 6
9 8 9 8 9 6 5 7 7 2 0 4 7 7 7 5 3 4 5 5 5 5 5 5 5 4 5 7 8 9 8 8 7 7 7 7 7 7 6 7 7 7 7 6
8 7 5 6 4 1 4 5 3 3 3 3 5 6 6 6 5 6 6 5 5 5 5 5 5 5 5 6 7 8 7 7 7 8 8 7 7 7 7 7 7 7 6 5
5 5 7 7 6 5 5 5 5 4 4 3 4 5 6 6 6 6 6 6 5 5 5 5 5 5 6 6 6 6 7 7 8 8 8 7 8 7 7 5 6 6 6 5
4 5 6 8 5 5 5 5 4 4 4 3 3 4 6 6 6 6 6 6 5 5 5 5 5 5 6 6 5 5 6 8 8 8 8 7 7 7 6 5 3 4 4 3
6 7 7 6 5 5 4 3 4 4 4 5 5 4 5 6 6 6 6 5 6 5 5 5 5 5 5 6 6 6 6 8 8 8 7 6 6 6 5 6 5 4 3 5
Wind_Direction
185 201 198 196 213 240 209 201 192 181 185 214 219 219 209 202 206 202 194 190 186 187 180 176 178 175 180 177 173 166 166 159 153 149 154 136 125 122 112 106 109 113 107 100
186 200 202 197 196 209 211 208 195 178 183 232 232 235 222 212 212 212 204 195 191 187 181 176 183 182 186 183 181 178 174 170 166 160 152 140 131 120 102 105 105 106 106 108
202 151 176 191 192 203 216 229 219 202 190 226 246 238 221 212 211 212 214 206 197 193 189 182 186 187 186 186 185 185 181 175 172 167 157 147 140 149 143 140 123 102 99 105
208 195 194 202 208 221 216 226 227 212 222 220 239 261 210 200 201 206 208 205 201 195 193 188 188 191 190 188 189 188 184 180 172 170 174 174 177 163 145 139 133 131 119 112
188 193 205 216 221 228 210 196 220 232 244 248 227 258 207 190 209 206 205 202 199 193 192 189 191 194 191 186 188 190 185 179 173 177 173 183 178 161 143 142 139 141 122 117
219 210 229 225 205 206 178 184 195 221 238 243 227 246 248 194 219 207 200 196 194 191 190 189 187 187 182 176 180 185 185 175 172 175 176 182 167 163 157 159 147 149 133 127
206 203 198 207 192 186 206 220 215 210 216 235 192 244 255 223 230 217 200 191 188 188 190 189 185 183 179 175 178 181 180 174 174 178 178 176 170 172 170 167 161 164 145 139
211 199 190 201 220 208 206 227 247 255 255 242 206 240 224 49 233 211 194 186 182 184 189 189 188 185 181 179 179 180 179 176 175 181 177 172 166 173 168 178 171 169 154 138
226 203 166 190 215 220 205 216 250 273 267 252 216 225 222 193 202 196 190 183 182 183 186 188 188 186 182 180 181 182 180 177 176 177 173 174 171 170 168 174 174 162 155 146
251 229 183 171 187 209 243 207 211 240 259 251 230 228 221 182 197 191 191 186 182 181 186 189 188 187 183 181 181 182 182 179 174 174 172 170 173 170 172 174 169 164 160 152
233 233 190 188 209 201 195 203 217 230 257 271 263 154 77 275 212 200 189 181 179 180 184 188 187 186 182 179 178 180 181 179 176 177 174 172 171 173 172 175 170 167 159 158
217 246 227 208 193 234 225 221 219 231 232 249 272 307 93 307 227 204 189 179 176 177 179 180 181 179 178 178 177 180 181 178 176 175 175 175 172 174 176 173 172 170 163 163
195 228 225 199 190 197 216 221 223 236 247 242 247 229 115 139 187 180 184 179 173 171 173 174 175 180 178 177 178 181 181 176 171 172 174 175 176 176 175 173 167 169 166 163
232 231 239 243 252 210 213 213 217 224 236 240 243 261 227 228 212 188 180 178 173 174 172 173 176 179 178 177 179 180 179 174 171 173 176 177 175 173 172 164 163 167 165 165
232 240 235 249 252 238 237 228 220 227 240 252 258 260 266 258 226 195 179 172 175 181 180 178 179 178 179 180 180 177 177 175 174 175 179 178 174 170 166 159 162 162 160 163
230 241 233 235 234 240 243 234 228 230 237 244 255 256 255 240 199 185 180 175 184 187 187 184 186 181 183 185 181 177 178 178 176 179 179 172 171 169 168 165 164 161 161 159
216 237 241 242 229 242 241 231 225 227 230 236 243 245 224 217 210 201 190 185 190 192 192 192 192 189 189 190 183 179 178 174 178 178 173 171 172 170 172 167 164 164 163 159
225 229 238 246 232 239 237 212 228 233 237 235 239 239 230 223 212 201 188 186 190 189 194 197 197 192 191 187 182 177 173 174 177 176 173 173 174 170 168 167 168 170 164 158
225 224 228 231 237 248 238 213 211 222 234 225 224 223 213 199 193 195 184 193 196 188 188 189 192 190 185 181 178 174 174 174 175 175 177 174 175 171 169 169 171 170 164 160
202 221 231 225 234 239 226 181 200 225 233 208 210 204 192 192 209 191 171 181 187 175 170 172 178 178 175 177 175 174 174 174 177 178 180 176 174 173 173 172 168 163 164 163
185 201 220 228 236 246 215 164 189 218 229 182 200 200 196 205 221 151 160 167 167 158 153 156 162 169 174 174 173 176 176 178 177 174 174 171 171 174 170 165 162 162 161 160
206 201 207 217 227 232 152 171 205 248 131 187 195 197 198 191 172 161 163 160 160 157 153 157 158 161 169 173 174 179 182 178 168 164 167 170 170 167 162 158 161 164 161 161
224 226 218 219 231 23 178 207 239 268 226 205 199 193 187 186 188 179 170 164 164 162 158 159 158 154 162 172 177 181 176 167 163 163 165 167 167 164 163 162 163 164 165 169
217 234 231 231 232 235 233 250 253 254 243 227 205 189 190 193 189 180 170 167 165 165 163 162 159 159 164 171 180 179 167 165 165 165 166 167 165 160 161 163 168 168 172 176
226 212 229 240 247 251 238 242 255 250 237 219 204 194 189 185 186 179 173 170 167 163 161 164 168 168 168 168 170 169 167 167 169 166 166 165 161 155 154 151 152 171 168 178
219 219 227 241 245 248 249 250 254 238 220 205 196 190 185 185 181 178 173 165 162 162 159 163 166 168 165 162 165 165 168 172 171 166 165 162 157 153 152 147 129 74 92 106